Location: Six Mile Lake
(44.9000°N, 79.7170°W)
Time: 10:07:06
(UTC-04:00)

ESTCUBE 1 - Pass Details

Date: 29 June 2022
Orbit: 645 x 657 km, 97.9° (Epoch: 18 August)

Event Time Altitude Azimuth Distance (km) Brightness Sun altitude
Exits shadow 23:11:24 27° 149° (SSE) 1,227 ? -15.6°
Maximum altitude 23:13:42 67° 74° (ENE) 704 ? -15.9°
Drops below altitude 10° 23:18:09 10° 352° (N) 2,059 ? -16.3°
Sets 23:20:23 0° 350° (N) 2,975 ? -16.4°
